This demonstration page uses our WeatherBlox Daily Observations layout. Learn more.

Left ArrowRight Arrow

44.89941, -97.11507

Hourly Observations for February 15, 2021

Temp ( °F °C ) Dew Point ( °F °C ) Humidity (%) Winds ( mph kmh ) Pressure ( in mb ) Visibility ( mi km ) Precip ( " mm )
12:53 am 00:53 Clear -22 -30 -26 -32.2 81 81 Calm 30.71 1040 10 16 0.00 0.00
1:53 am 01:53 Clear -21 -29.4 -26 -32.2 77 77 Calm 30.69 1039 10 16 0.00 0.00
2:53 am 02:53 Clear -24 -31.1 -29 -33.9 76 76 Calm 30.70 1040 10 16 0.00 0.00
3:53 am 03:53 Clear -24 -31.1 -29 -33.9 76 76 Calm 30.68 1039 10 16 0.00 0.00
4:53 am 04:53 Clear -24 -31.1 -29 -33.9 76 76 Calm 30.67 1039 10 16 0.00 0.00
5:53 am 05:53 Clear -24 -31.1 -30 -34.4 73 73 Calm 30.66 1038 10 16 0.00 0.00
6:53 am 06:53 Clear -24 -31.1 -29 -33.9 76 76 Calm 30.65 1038 10 16 0.00 0.00
7:53 am 07:53 Sunny -24 -31.1 -29 -33.9 76 76 Calm 30.64 1038 10 16 0.00 0.00
8:53 am 08:53 Sunny -22 -30 -26 -32.2 81 81 Calm 30.63 1037 10 16 0.00 0.00
9:53 am 09:53 Sunny -14 -25.6 -20 -28.9 74 74 Calm 30.59 1036 10 16 0.00 0.00
10:53 am 10:53 Sunny -9 -22.8 -19 -28.3 61 61 Calm 30.58 1036 10 16 0.00 0.00
11:53 am 11:53 Sunny -8 -22.2 -19 -28.3 58 58 SE 8 13 30.58 1036 10 16 0.00 0.00
12:53 pm 12:53 Sunny -8 -22.2 -16 -26.7 67 67 SSE 13 20 30.56 1035 10 16 0.00 0.00
1:53 pm 13:53 Sunny -7 -21.7 -16 -26.7 64 64 S 10 17 30.53 1034 10 16 0.00 0.00
2:53 pm 14:53 Sunny -6 -21.1 -16 -26.7 61 61 S 5 7 30.49 1033 10 16 0.00 0.00
3:53 pm 15:53 Sunny -6 -21.1 -16 -26.7 61 61 Calm 30.45 1031 10 16 0.00 0.00
4:53 pm 16:53 Sunny -6 -21.1 -17 -27.2 58 58 SW 3 6 30.42 1030 10 16 0.00 0.00
5:53 pm 17:53 Sunny -7 -21.7 -18 -27.8 58 58 ESE 5 7 30.40 1030 10 16 0.00 0.00
6:53 pm 18:53 Clear -9 -22.8 -18 -27.8 64 64 SE 5 7 30.40 1029 10 16 0.00 0.00
7:53 pm 19:53 Clear -10 -23.3 -19 -28.3 64 64 SE 7 11 30.39 1029 10 16 0.00 0.00
8:53 pm 20:53 Clear -11 -23.9 -20 -28.9 63 63 ESE 3 6 30.38 1029 10 16 0.00 0.00
9:53 pm 21:53 Clear -13 -25 -20 -28.9 70 70 ESE 5 7 30.35 1028 10 16 0.00 0.00
10:53 pm 22:53 Clear -13 -25 -20 -28.9 70 70 ESE 6 9 30.32 1027 10 16 0.00 0.00
11:53 pm 23:53 Clear -15 -26.1 -20 -28.9 77 77 Calm 30.32 1027 10 16 0.00 0.00

Powered by AerisWeather